Date String (YYYY-MM-DD hh:mm:ss) UTC,Instrument flags,Ambient pressure (hPa),Sample flow (lpm),Bypass flow (lpm),Sample temperature (°C),Ambient temperature (°C),ASC tube jacket temperature (°C),LED temperature (°C),Box temperature (°C),Sample RH (%),Span deviation,Mass concentration (μg/m³),Mass concentration (μg/m³),Mass concentration (μg/m³)
DateTimeUTC,F1_M11,P_M11,Q1_M11,Q2_M11,T1_M11,T2_M11,T3_M11,T4_M11,T5_M11,U1_M11,ZSPAN_M11,X0_M11,X2_M11,X1_M11
2021-10-07 13:00:00,,0827.8,4.99,0.00,30.3,29.5,00.0,39.4,32.0,14.0,0000.0,0004.92,0003.00,0002.72
2021-10-07 13:01:00,,0827.8,5.01,0.00,30.3,29.5,00.0,39.4,32.0,14.4,0000.0,0004.66,0002.99,0002.71
2021-10-07 13:02:00,,0827.8,5.00,0.00,30.3,29.5,00.0,39.4,32.0,14.5,0000.0,0004.75,0003.03,0002.71
2021-10-07 13:03:00,,0827.9,4.99,0.00,30.3,29.5,00.0,39.4,32.1,14.7,0000.0,0004.88,0003.07,0002.72
2021-10-07 13:04:00,,0827.9,5.01,0.00,30.3,29.5,00.0,39.4,32.1,14.7,0000.0,0005.57,0003.08,0002.72
2021-10-07 13:05:00,,0827.9,5.01,0.00,30.4,29.5,00.0,39.4,32.1,14.7,0000.0,0005.72,0003.03,0002.72
2021-10-07 13:06:00,,0827.9,5.00,0.00,30.4,29.5,00.0,39.4,32.1,14.3,0000.0,0005.81,0003.07,0002.71
2021-10-07 13:07:00,,0827.9,4.99,0.00,30.4,29.5,00.0,39.4,32.1,14.2,0000.0,0006.03,0003.07,0002.72
2021-10-07 13:08:00,,0827.9,5.01,0.00,30.4,29.5,00.0,39.4,32.1,14.1,0000.0,0006.96,0003.09,0002.72
2021-10-07 13:09:00,,0827.9,5.01,0.00,30.4,29.5,00.0,39.5,32.1,14.3,0000.0,0006.58,0003.08,0002.72
2021-10-07 13:10:00,,0827.8,4.99,0.00,30.4,29.5,00.0,39.5,32.1,14.2,0000.0,0006.37,0003.09,0002.74
2021-10-07 13:11:00,,0827.8,5.00,0.00,30.4,29.5,00.0,39.5,32.1,14.1,0000.0,0006.41,0003.11,0002.75
2021-10-07 13:12:00,,0827.8,4.99,0.00,30.4,29.5,00.0,39.5,32.1,14.2,0000.0,0007.20,0003.11,0002.77
2021-10-07 13:13:00,,0827.9,5.00,0.00,30.4,29.5,00.0,39.5,32.1,14.1,0000.0,0007.40,0003.08,0002.76
2021-10-07 13:14:00,,0827.9,4.99,0.00,30.4,29.5,00.0,39.5,32.1,14.5,0000.0,0007.29,0003.04,0002.77
2021-10-07 13:15:00,,0827.8,5.00,0.00,30.4,29.5,00.0,39.5,32.1,14.6,0000.0,0006.61,0003.05,0002.78
2021-10-07 13:16:00,,0828.0,5.01,0.00,30.4,29.5,00.0,39.5,32.1,14.5,0000.0,0006.47,0003.08,0002.80
2021-10-07 13:17:00,,0827.9,4.99,0.00,30.4,29.5,00.0,39.5,32.1,14.9,0000.0,0007.25,0003.06,0002.81
2021-10-07 13:18:00,,0827.9,5.01,0.00,30.4,29.5,00.0,39.5,32.1,14.9,0000.0,0007.45,0003.09,0002.80
2021-10-07 13:19:00,,0827.9,5.00,0.00,30.4,29.5,00.0,39.5,32.1,14.8,0000.0,0006.84,0003.06,0002.78
2021-10-07 13:20:00,,0828.0,5.01,0.00,30.4,29.5,00.0,39.5,32.1,14.5,0000.0,0006.81,0003.05,0002.78
2021-10-07 13:21:00,,0827.9,5.01,0.00,30.4,29.5,00.0,39.5,32.2,14.5,0000.0,0006.83,0003.04,0002.76
2021-10-07 13:22:00,,0827.9,5.00,0.00,30.4,29.5,00.0,39.5,32.1,14.5,0000.0,0007.14,0003.08,0002.76
2021-10-07 13:23:00,,0828.0,4.99,0.00,30.4,29.5,00.0,39.5,32.1,14.6,0000.0,0006.78,0003.11,0002.75
2021-10-07 13:24:00,,0828.0,5.01,0.00,30.4,29.5,00.0,39.5,32.1,14.6,0000.0,0007.47,0003.14,0002.75
2021-10-07 13:25:00,,0828.1,5.00,0.00,30.4,29.5,00.0,39.5,32.1,14.4,0000.0,0008.28,0003.16,0002.76
2021-10-07 13:26:00,,0828.1,5.00,0.00,30.4,29.5,00.0,39.5,32.1,14.5,0000.0,0008.58,0003.17,0002.79
2021-10-07 13:27:00,,0828.0,5.00,0.00,30.4,29.6,00.0,39.5,32.1,14.5,0000.0,0008.35,0003.16,0002.80
2021-10-07 13:28:00,,0828.0,5.00,0.00,30.4,29.6,00.0,39.5,32.1,14.4,0000.0,0007.84,0003.16,0002.82
2021-10-07 13:29:00,,0828.0,5.00,0.00,30.4,29.5,00.0,39.5,32.1,14.4,0000.0,0007.51,0003.15,0002.83
2021-10-07 13:30:00,,0828.0,4.99,0.00,30.4,29.5,00.0,39.5,32.1,14.4,0000.0,0007.41,0003.15,0002.86
2021-10-07 13:31:00,,0828.0,5.01,0.00,30.4,29.5,00.0,39.5,32.1,14.4,0000.0,0007.44,0003.17,0002.88
2021-10-07 13:32:00,,0828.0,5.00,0.00,30.4,29.5,00.0,39.5,32.1,14.4,0000.0,0007.52,0003.18,0002.89
2021-10-07 13:33:00,,0828.0,4.99,0.00,30.4,29.5,00.0,39.5,32.0,14.3,0000.0,0007.42,0003.18,0002.90
2021-10-07 13:34:00,,0828.0,5.00,0.00,30.4,29.5,00.0,39.5,32.1,14.3,0000.0,0007.03,0003.20,0002.93
2021-10-07 13:35:00,,0828.0,5.00,0.00,30.4,29.5,00.0,39.5,32.1,14.4,0000.0,0006.55,0003.21,0002.96
2021-10-07 13:36:00,,0828.1,5.00,0.00,30.4,29.4,00.0,39.5,32.0,14.4,0000.0,0005.60,0003.20,0002.96
2021-10-07 13:37:00,,0828.1,4.98,0.00,30.4,29.5,00.0,39.5,32.1,14.4,0000.0,0004.69,0003.18,0002.96
2021-10-07 13:38:00,,0828.1,5.01,0.00,30.4,29.4,00.0,39.5,32.1,14.5,0000.0,0004.54,0003.18,0002.94
2021-10-07 13:39:00,,0828.1,4.98,0.00,30.4,29.4,00.0,39.5,32.1,14.5,0000.0,0004.61,0003.20,0002.95
2021-10-07 13:40:00,,0828.1,4.99,0.00,30.4,29.5,00.0,39.5,32.1,14.5,0000.0,0004.67,0003.21,0002.96
2021-10-07 13:41:00,,0828.1,5.01,0.00,30.4,29.5,00.0,39.5,32.1,14.3,0000.0,0004.72,0003.23,0002.96
2021-10-07 13:42:00,,0828.1,5.00,0.00,30.4,29.5,00.0,39.6,32.1,14.2,0000.0,0004.75,0003.24,0002.95
2021-10-07 13:43:00,,0828.1,4.99,0.00,30.4,29.5,00.0,39.6,32.1,14.3,0000.0,0004.56,0003.23,0002.96
2021-10-07 13:44:00,,0828.1,4.99,0.00,30.4,29.5,00.0,39.6,32.1,14.4,0000.0,0004.54,0003.22,0002.95
2021-10-07 13:45:00,,0828.2,5.01,0.00,30.5,29.5,00.0,39.6,32.1,14.4,0000.0,0004.42,0003.19,0002.94
2021-10-07 13:46:00,,0828.2,4.99,0.00,30.5,29.5,00.0,39.6,32.2,14.4,0000.0,0004.00,0003.17,0002.92
2021-10-07 13:47:00,,0828.1,4.99,0.00,30.5,29.5,00.0,39.6,32.2,14.4,0000.0,0003.86,0003.18,0002.91
2021-10-07 13:48:00,,0828.2,5.00,0.00,30.5,29.6,00.0,39.6,32.2,14.3,0000.0,0003.96,0003.18,0002.88
2021-10-07 13:49:00,,0828.2,5.01,0.00,30.5,29.6,00.0,39.6,32.2,14.3,0000.0,0003.97,0003.17,0002.87
2021-10-07 13:50:00,,0828.2,5.00,0.00,30.5,29.6,00.0,39.6,32.2,14.3,0000.0,0004.04,0003.16,0002.85
2021-10-07 13:51:00,,0828.2,5.00,0.00,30.5,29.6,00.0,39.6,32.3,14.4,0000.0,0004.01,0003.15,0002.84
2021-10-07 13:52:00,,0828.2,5.00,0.00,30.5,29.7,00.0,39.6,32.3,14.3,0000.0,0004.00,0003.13,0002.84
2021-10-07 13:53:00,,0828.3,5.00,0.00,30.6,29.7,00.0,39.6,32.3,14.4,0000.0,0003.88,0003.10,0002.83
2021-10-07 13:54:00,,0828.2,5.01,0.00,30.6,29.7,00.0,39.6,32.3,14.3,0000.0,0003.82,0003.07,0002.81
2021-10-07 13:55:00,,0828.3,5.00,0.00,30.6,29.7,00.0,39.7,32.3,14.4,0000.0,0003.71,0003.04,0002.81
2021-10-07 13:56:00,,0828.3,5.01,0.00,30.6,29.7,00.0,39.7,32.3,14.5,0000.0,0003.65,0003.01,0002.79
2021-10-07 13:57:00,,0828.3,5.01,0.00,30.6,29.7,00.0,39.7,32.3,14.5,0000.0,0003.66,0003.02,0002.80
2021-10-07 13:58:00,,0828.3,4.99,0.00,30.6,29.7,00.0,39.7,32.3,14.4,0000.0,0003.48,0002.99,0002.81
2021-10-07 13:59:00,,0828.3,5.00,0.00,30.6,29.8,00.0,39.7,32.4,14.3,0000.0,0003.41,0002.97,0002.82
